SM1UBB-2 Weather Reports


Display with metric or nautical units.
time (UTC)temp
F
wind
direction
speed
MPH
gust
MPH
rain 1hr
in
rain 24hr
in
rain mn
in
humidity
%
barometer
mb
20240522214002 56 0 0.0 0.0 0.00 0.00 0.00 75 1018.8
20240522213501 56 0 0.0 0.0 0.00 0.00 0.00 75 1018.9
20240522213002 57 0 0.0 0.0 0.00 0.00 0.00 74 1018.9
20240522212502 57 0 0.0 0.0 0.00 0.00 0.00 74 1018.9
20240522212003 56 0 0.0 0.0 0.00 0.00 0.00 74 1018.9
20240522211503 56 0 0.0 0.0 0.00 0.00 0.00 74 1019.0
20240522211002 56 0 0.0 0.0 0.00 0.00 0.00 74 1019.0
20240522210503 56 0 0.0 0.0 0.00 0.00 0.00 74 1019.0
20240522210003 56 0 0.0 0.0 0.00 0.00 0.00 75 1019.0
20240522205002 56 0 0.0 0.0 0.00 0.00 0.00 76 1019.0
20240522204503 56 0 0.0 0.0 0.00 0.00 0.00 75 1019.0
20240522204002 56 0 0.0 0.0 0.00 0.00 0.00 76 1019.0
20240522203501 56 0 0.0 0.0 0.00 0.00 0.00 76 1019.0
20240522203002 56 0 0.0 0.0 0.00 0.00 0.00 76 1019.0
20240522202502 55 0 0.0 0.0 0.00 0.00 0.00 77 1018.9
20240522202002 55 0 0.0 0.0 0.00 0.00 0.00 78 1019.0
20240522201503 55 0 0.0 0.0 0.00 0.00 0.00 78 1019.0
20240522201002 55 0 0.0 0.0 0.00 0.00 0.00 78 1018.9
20240522200502 55 0 0.0 0.0 0.00 0.00 0.00 77 1018.9
20240522195503 55 0 0.0 0.0 0.00 0.00 0.00 76 1019.0
20240522195002 55 0 0.0 0.0 0.00 0.00 0.00 76 1019.0
20240522194503 55 0 0.0 0.0 0.00 0.00 0.00 76 1019.1
20240522194002 55 0 0.0 0.0 0.00 0.00 0.00 76 1019.0
20240522193503 56 0 0.0 0.0 0.00 0.00 0.00 75 1019.0
20240522193003 56 0 0.0 0.0 0.00 0.00 0.00 74 1018.9
20240522192502 56 0 0.0 0.0 0.00 0.00 0.00 74 1018.9
20240522192003 56 0 0.0 0.0 0.00 0.00 0.00 74 1018.9
20240522190502 56 0 0.0 0.0 0.00 0.00 0.00 72 1018.7
20240522185502 56 0 0.0 0.0 0.00 0.00 0.00 71 1018.7
20240522185004 57 0 0.0 0.0 0.00 0.00 0.00 70 1018.7
20240522184503 57 0 0.0 0.0 0.00 0.00 0.00 70 1018.6
20240522184002 57 0 0.0 0.0 0.00 0.00 0.00 69 1018.6
20240522183502 57 0 0.0 0.0 0.00 0.00 0.00 69 1018.5
20240522183003 57 0 0.0 0.0 0.00 0.00 0.00 68 1018.4
20240522182502 57 0 0.0 0.0 0.00 0.00 0.00 68 1018.4
20240522182003 58 0 0.0 0.0 0.00 0.00 0.00 67 1018.3
20240522181502 58 0 0.0 0.0 0.00 0.00 0.00 67 1018.4
20240522180502 58 0 0.0 0.0 0.00 0.00 0.00 65 1018.3
20240522180002 59 0 0.0 0.0 0.00 0.00 0.00 65 1018.3
20240522175503 59 0 0.0 0.0 0.00 0.00 0.00 64 1018.2
20240522175002 59 0 0.0 0.0 0.00 0.00 0.00 63 1018.3
20240522174503 59 0 0.0 0.0 0.00 0.00 0.00 63 1018.2
20240522174002 59 0 0.0 0.0 0.00 0.00 0.00 62 1018.3
20240522173503 59 0 0.0 0.0 0.00 0.00 0.00 62 1018.2
20240522173003 59 0 0.0 0.0 0.00 0.00 0.00 62 1018.2
20240522172503 59 0 0.0 0.0 0.00 0.00 0.00 63 1018.2
20240522172003 59 0 0.0 0.0 0.00 0.00 0.00 62 1018.3
20240522171503 60 0 0.0 0.0 0.00 0.00 0.00 63 1018.4
20240522171003 60 0 0.0 0.0 0.00 0.00 0.00 62 1018.3
20240522170503 60 0 0.0 0.0 0.00 0.00 0.00 61 1018.4
20240522170004 60 0 0.0 0.0 0.00 0.00 0.00 61 1018.3
20240522165503 61 0 0.0 0.0 0.00 0.00 0.00 61 1018.3
20240522164004 61 0 0.0 0.0 0.00 0.00 0.00 62 1018.4
20240522163502 61 0 0.0 0.0 0.00 0.00 0.00 61 1018.4
20240522163003 61 0 0.0 0.0 0.00 0.00 0.00 61 1018.5
20240522162502 61 0 0.0 0.0 0.00 0.00 0.00 61 1018.5
20240522162004 61 0 0.0 0.0 0.00 0.00 0.00 61 1018.5
20240522161502 61 0 0.0 0.0 0.00 0.00 0.00 61 1018.7
20240522161003 61 0 0.0 0.0 0.00 0.00 0.00 60 1018.7
20240522160502 61 0 0.0 0.0 0.00 0.00 0.00 60 1018.7
20240522160003 61 0 0.0 0.0 0.00 0.00 0.00 60 1018.6
20240522155503 61 0 0.0 0.0 0.00 0.00 0.00 61 1018.8
20240522155002 61 0 0.0 0.0 0.00 0.00 0.00 61 1018.8
20240522154503 61 0 0.0 0.0 0.00 0.00 0.00 60 1018.8
20240522154002 62 0 0.0 0.0 0.00 0.00 0.00 61 1018.8
20240522153502 62 0 0.0 0.0 0.00 0.00 0.00 62 1018.9
20240522153003 62 0 0.0 0.0 0.00 0.00 0.00 61 1019.0
20240522152003 62 75 0.0 0.0 0.00 0.00 0.00 60 1019.1
20240522151502 62 76 0.0 0.0 0.00 0.00 0.00 59 1019.2
20240522151003 62 83 0.0 0.0 0.00 0.00 0.00 60 1019.2
20240522150002 63 74 0.0 0.0 0.00 0.00 0.00 58 1019.3
20240522145003 63 84 0.0 0.0 0.00 0.00 0.00 58 1019.3
20240522143503 63 55 0.0 0.0 0.00 0.00 0.00 60 1019.5
20240522143002 62 89 0.0 0.0 0.00 0.00 0.00 60 1019.5
20240522142503 63 80 0.0 0.0 0.00 0.00 0.00 60 1019.5
20240522142003 63 82 0.0 0.0 0.00 0.00 0.00 60 1019.6
20240522141502 63 84 0.0 0.0 0.00 0.00 0.00 60 1019.6
20240522141003 63 53 0.0 0.0 0.00 0.00 0.00 60 1019.6
20240522140502 63 76 0.0 0.0 0.00 0.00 0.00 60 1019.6
20240522140002 63 77 0.0 0.0 0.00 0.00 0.00 59 1019.7
20240522135502 63 72 0.0 0.0 0.00 0.00 0.00 60 1019.7
20240522135002 63 80 0.0 0.0 0.00 0.00 0.00 60 1019.7
20240522133503 64 71 0.0 0.0 0.00 0.00 0.00 61 1019.8
20240522132503 64 68 0.0 0.0 0.00 0.00 0.00 62 1019.9
20240522132002 63 81 0.0 0.0 0.00 0.00 0.00 62 1020.0
20240522131504 64 82 0.0 0.0 0.00 0.00 0.00 62 1020.0
20240522131002 63 52 0.0 0.0 0.00 0.00 0.00 64 1020.0
20240522130503 63 87 0.0 0.0 0.00 0.00 0.00 63 1020.0
20240522130002 63 92 0.0 0.0 0.00 0.00 0.00 63 1020.0
20240522125503 63 76 0.0 0.0 0.00 0.00 0.00 62 1020.1
20240522125003 63 86 0.0 0.0 0.00 0.00 0.00 64 1020.1
20240522124503 62 79 0.0 0.0 0.00 0.00 0.00 64 1020.1
20240522124002 63 75 0.0 0.0 0.00 0.00 0.00 63 1020.2
20240522123503 63 88 0.0 0.0 0.00 0.00 0.00 64 1020.2
20240522123002 63 68 0.0 0.0 0.00 0.00 0.00 63 1020.2
20240522122502 64 74 0.0 0.0 0.00 0.00 0.00 63 1020.3
20240522122002 63 53 0.0 0.0 0.00 0.00 0.00 65 1020.3
20240522121003 63 66 0.0 0.0 0.00 0.00 0.00 65 1020.2
20240522120503 63 72 0.0 0.0 0.00 0.00 0.00 66 1020.3
20240522120002 63 68 0.0 0.0 0.00 0.00 0.00 66 1020.3
20240522115502 63 76 0.0 0.0 0.00 0.00 0.00 67 1020.2
20240522115004 63 76 0.0 0.0 0.00 0.00 0.00 67 1020.3
20240522114003 64 81 0.0 0.0 0.00 0.00 0.00 66 1020.3
20240522113502 63 82 0.0 0.0 0.00 0.00 0.00 67 1020.3
20240522113003 63 65 0.0 0.0 0.00 0.00 0.00 68 1020.3
20240522112502 63 61 0.0 0.0 0.00 0.00 0.00 69 1020.3
20240522112003 63 86 0.0 0.0 0.00 0.00 0.00 69 1020.3
20240522111502 64 73 0.0 0.0 0.00 0.00 0.00 68 1020.3
20240522110502 63 85 0.0 0.0 0.00 0.00 0.00 68 1020.3
20240522110002 63 82 0.0 0.0 0.00 0.00 0.00 68 1020.3
20240522105502 64 95 0.0 0.0 0.00 0.00 0.00 67 1020.3
20240522105003 64 69 0.0 0.0 0.00 0.00 0.00 66 1020.3
20240522104503 63 70 0.0 0.0 0.00 0.00 0.00 68 1020.3
20240522104003 63 64 0.0 0.0 0.00 0.00 0.00 67 1020.5
20240522103004 64 71 0.0 0.0 0.00 0.00 0.00 66 1020.6
20240522102504 64 78 0.0 0.0 0.00 0.00 0.00 65 1020.6
20240522102002 64 95 0.0 0.0 0.00 0.00 0.00 65 1020.6
20240522101502 64 99 0.0 0.0 0.00 0.00 0.00 64 1020.6
20240522101002 64 106 0.0 0.0 0.00 0.00 0.00 68 1020.7
20240522100503 63 85 0.0 0.0 0.00 0.00 0.00 67 1020.8
20240522100002 63 100 0.0 0.0 0.00 0.00 0.00 67 1020.7
20240522095503 63 58 0.0 0.0 0.00 0.00 0.00 67 1020.7
20240522095003 63 100 0.0 0.0 0.00 0.00 0.00 68 1020.8
20240522094502 63 90 0.0 0.0 0.00 0.00 0.00 69 1020.8
20240522094004 63 56 0.0 0.0 0.00 0.00 0.00 68 1020.8
20240522093003 64 102 0.0 0.0 0.00 0.00 0.00 68 1020.8
20240522092503 63 97 0.0 0.0 0.00 0.00 0.00 70 1020.7
20240522092003 62 87 0.0 0.0 0.00 0.00 0.00 70 1020.7
20240522091502 62 100 0.0 0.0 0.00 0.00 0.00 71 1020.8
20240522091004 62 58 0.0 0.0 0.00 0.00 0.00 71 1020.7
20240522090502 62 19 0.0 0.0 0.00 0.00 0.00 72 1020.7
20240522090002 61 114 0.0 0.0 0.00 0.00 0.00 73 1020.8
20240522085003 61 100 0.0 0.0 0.00 0.00 0.00 72 1020.8
20240522084503 62 66 0.0 0.0 0.00 0.00 0.00 71 1020.8
20240522084003 62 76 0.0 0.0 0.00 0.00 0.00 70 1020.8
20240522083503 62 94 0.0 0.0 0.00 0.00 0.00 69 1020.6
20240522083003 62 91 0.0 0.0 0.00 0.00 0.00 72 1020.5
20240522082503 61 90 0.0 0.0 0.00 0.00 0.00 73 1020.5
20240522082003 61 67 0.0 0.0 0.00 0.00 0.00 72 1020.5
20240522081502 60 90 0.0 0.0 0.00 0.00 0.00 74 1020.5
20240522081003 61 53 0.0 0.0 0.00 0.00 0.00 72 1020.5
20240522080502 61 71 0.0 0.0 0.00 0.00 0.00 73 1020.5
20240522080002 61 49 0.0 0.0 0.00 0.00 0.00 74 1020.5
20240522075003 60 80 0.0 0.0 0.00 0.00 0.00 74 1020.6
20240522074502 60 78 0.0 0.0 0.00 0.00 0.00 73 1020.6
20240522074003 61 50 0.0 0.0 0.00 0.00 0.00 74 1020.6
20240522073503 61 73 0.0 0.0 0.00 0.00 0.00 74 1020.6
20240522072502 60 67 0.0 0.0 0.00 0.00 0.00 75 1020.4
20240522071503 60 0 0.0 0.0 0.00 0.00 0.00 75 1020.3
20240522071003 60 0 0.0 0.0 0.00 0.00 0.00 74 1020.3
20240522070502 59 0 0.0 0.0 0.00 0.00 0.00 76 1020.3
20240522070002 60 0 0.0 0.0 0.00 0.00 0.00 74 1020.3
20240522064503 59 0 0.0 0.0 0.00 0.00 0.00 74 1020.3
20240522064003 59 0 0.0 0.0 0.00 0.00 0.00 74 1020.2
20240522063503 60 0 0.0 0.0 0.00 0.00 0.00 74 1020.2
20240522062002 59 0 0.0 0.0 0.00 0.00 0.00 75 1020.1
20240522061502 59 0 0.0 0.0 0.00 0.00 0.00 76 1020.1
20240522061003 59 0 0.0 0.0 0.00 0.00 0.00 74 1020.1
20240522060502 59 0 0.0 0.0 0.00 0.00 0.00 75 1020.1
20240522060003 59 0 0.0 0.0 0.00 0.00 0.00 76 1020.2
20240522055003 58 0 0.0 0.0 0.00 0.00 0.00 76 1020.2
20240522054502 58 0 0.0 0.0 0.00 0.00 0.00 77 1020.2
20240522054003 57 0 0.0 0.0 0.00 0.00 0.00 78 1020.1
20240522053503 57 0 0.0 0.0 0.00 0.00 0.00 78 1020.1
20240522053003 57 0 0.0 0.0 0.00 0.00 0.00 79 1020.0
20240522052502 57 0 0.0 0.0 0.00 0.00 0.00 79 1020.0
20240522052004 57 0 0.0 0.0 0.00 0.00 0.00 79 1020.0
20240522051502 57 0 0.0 0.0 0.00 0.00 0.00 80 1020.0
20240522051005 56 0 0.0 0.0 0.00 0.00 0.00 80 1020.0
20240522050502 56 0 0.0 0.0 0.00 0.00 0.00 80 1020.0
20240522050003 56 0 0.0 0.0 0.00 0.00 0.00 81 1019.9
20240522045504 56 0 0.0 0.0 0.00 0.00 0.00 81 1020.0
20240522044502 55 0 0.0 0.0 0.00 0.00 0.00 82 1020.0
20240522044003 55 0 0.0 0.0 0.00 0.00 0.00 82 1020.0
20240522043502 55 0 0.0 0.0 0.00 0.00 0.00 83 1020.0
20240522043003 55 0 0.0 0.0 0.00 0.00 0.00 82 1020.0
20240522042503 55 0 0.0 0.0 0.00 0.00 0.00 83 1019.9
20240522041503 54 0 0.0 0.0 0.00 0.00 0.00 84 1019.9
20240522041003 54 0 0.0 0.0 0.00 0.00 0.00 85 1019.8
20240522040002 53 0 0.0 0.0 0.00 0.00 0.00 86 1019.9
20240522034502 52 0 0.0 0.0 0.00 0.00 0.00 87 1019.8
20240522034003 52 0 0.0 0.0 0.00 0.00 0.00 88 1019.9
20240522033502 52 0 0.0 0.0 0.00 0.00 0.00 88 1019.9
20240522032502 51 0 0.0 0.0 0.00 0.00 0.00 88 1020.0
20240522032003 51 0 0.0 0.0 0.00 0.00 0.00 88 1020.0
20240522031504 51 0 0.0 0.0 0.00 0.00 0.00 89 1019.9
20240522030507 51 0 0.0 0.0 0.00 0.00 0.00 88 1020.0
20240522030002 51 0 0.0 0.0 0.00 0.00 0.00 88 1020.0
20240522025006 51 0 0.0 0.0 0.00 0.00 0.00 88 1020.0
20240522024503 51 0 0.0 0.0 0.00 0.00 0.00 88 1020.0
20240522024003 51 0 0.0 0.0 0.00 0.00 0.00 88 1019.8
20240522023505 51 0 0.0 0.0 0.00 0.00 0.00 88 1019.9
20240522023003 51 0 0.0 0.0 0.00 0.00 0.00 88 1020.0
20240522022502 51 0 0.0 0.0 0.00 0.00 0.00 88 1020.0
20240522022006 51 0 0.0 0.0 0.00 0.00 0.00 87 1019.9
20240522021504 51 0 0.0 0.0 0.00 0.00 0.00 87 1020.0
20240522021003 51 0 0.0 0.0 0.00 0.00 0.00 87 1020.0
20240522020506 51 0 0.0 0.0 0.00 0.00 0.00 86 1019.9
20240522020003 51 0 0.0 0.0 0.00 0.00 0.00 86 1020.0
20240522015007 51 0 0.0 0.0 0.00 0.00 0.00 85 1020.0
20240522014502 52 0 0.0 0.0 0.00 0.00 0.00 85 1020.1
20240522014002 52 0 0.0 0.0 0.00 0.00 0.00 84 1020.0
20240522013505 52 0 0.0 0.0 0.00 0.00 0.00 84 1020.0
20240522013003 52 0 0.0 0.0 0.00 0.00 0.00 84 1020.1
20240522012005 52 0 0.0 0.0 0.00 0.00 0.00 83 1020.1
20240522011503 52 0 0.0 0.0 0.00 0.00 0.00 83 1020.2
20240522011002 52 0 0.0 0.0 0.00 0.00 0.00 83 1020.2
20240522010507 52 0 0.0 0.0 0.00 0.00 0.00 83 1020.2
20240522010003 52 0 0.0 0.0 0.00 0.00 0.00 82 1020.2
20240522005007 52 0 0.0 0.0 0.00 0.00 0.00 82 1020.1
20240522004502 52 0 0.0 0.0 0.00 0.00 0.00 82 1020.1
20240522004003 52 0 0.0 0.0 0.00 0.00 0.00 81 1020.2
20240522003505 52 0 0.0 0.0 0.00 0.00 0.00 81 1020.3
20240522003002 52 0 0.0 0.0 0.00 0.00 0.00 81 1020.3
20240522002504 52 0 0.0 0.0 0.00 0.00 0.00 81 1020.2
20240522002004 52 0 0.0 0.0 0.00 0.00 0.00 81 1020.2
20240522001503 52 0 0.0 0.0 0.00 0.00 0.00 81 1020.2
20240522001002 52 0 0.0 0.0 0.00 0.00 0.00 81 1020.2
20240522000507 52 0 0.0 0.0 0.00 0.00 0.00 81 1020.2
20240522000003 52 0 0.0 0.0 0.00 0.00 0.00 80 1020.2
20240521235502 52 0 0.0 0.0 0.00 0.00 0.00 80 1020.2
20240521234502 52 0 0.0 0.0 0.00 0.00 0.00 79 1020.3
20240521234003 53 0 0.0 0.0 0.00 0.00 0.00 78 1020.4
20240521233002 53 0 0.0 0.0 0.00 0.00 0.00 76 1020.4
20240521232503 54 0 0.0 0.0 0.00 0.00 0.00 74 1020.4
20240521232005 54 0 0.0 0.0 0.00 0.00 0.00 73 1020.5
20240521231502 54 0 0.0 0.0 0.00 0.00 0.00 72 1020.3
20240521231002 54 0 0.0 0.0 0.00 0.00 0.00 72 1020.3
20240521230507 54 0 0.0 0.0 0.00 0.00 0.00 71 1020.3
20240521225503 54 0 0.0 0.0 0.00 0.00 0.00 72 1020.3
20240521225005 54 0 0.0 0.0 0.00 0.00 0.00 72 1020.3
20240521224502 54 0 0.0 0.0 0.00 0.00 0.00 72 1020.2
20240521224004 54 0 0.0 0.0 0.00 0.00 0.00 72 1020.3
20240521223504 54 0 0.0 0.0 0.00 0.00 0.00 72 1020.4
20240521223003 54 0 0.0 0.0 0.00 0.00 0.00 72 1020.4
20240521222503 53 0 0.0 0.0 0.00 0.00 0.00 72 1020.5
20240521222008 53 0 0.0 0.0 0.00 0.00 0.00 73 1020.5
20240521220003 53 0 0.0 0.0 0.00 0.00 0.00 72 1020.5
20240521214503 52 0 0.0 0.0 0.00 0.00 0.00 73 1020.3